Year,Month,Day,Hour,Minute,Value (Times are PST for temperature in C)
2021,06,01,00,00,17.30
2021,06,01,00,01,17.30
2021,06,01,00,02,17.30
2021,06,01,00,03,17.30
2021,06,01,00,04,17.30
2021,06,01,00,05,17.30
2021,06,01,00,06,17.30
2021,06,01,00,07,17.30
2021,06,01,00,08,17.30
2021,06,01,00,09,17.30
2021,06,01,00,10,17.30
2021,06,01,00,11,17.20
2021,06,01,00,12,17.20
2021,06,01,00,13,17.20
2021,06,01,00,14,17.20
2021,06,01,00,15,17.20
2021,06,01,00,16,17.20
2021,06,01,00,17,17.20
2021,06,01,00,18,17.10
2021,06,01,00,19,17.10
2021,06,01,00,20,17.10
2021,06,01,00,21,17.10
2021,06,01,00,22,17.10
2021,06,01,00,23,17.10
2021,06,01,00,24,17.10
2021,06,01,00,25,17.10
2021,06,01,00,26,17.10
2021,06,01,00,27,17.10
2021,06,01,00,28,17.10
2021,06,01,00,29,17.00
2021,06,01,00,30,17.00
2021,06,01,00,31,17.00
2021,06,01,00,32,17.00
2021,06,01,00,33,17.00
2021,06,01,00,34,17.00
2021,06,01,00,35,16.90
2021,06,01,00,36,16.90
2021,06,01,00,37,16.90
2021,06,01,00,38,16.90
2021,06,01,00,39,16.90
2021,06,01,00,40,16.90
2021,06,01,00,41,16.90
2021,06,01,00,42,16.80
2021,06,01,00,43,16.80
2021,06,01,00,44,16.80
2021,06,01,00,45,16.80
2021,06,01,00,46,16.80
2021,06,01,00,47,16.80
2021,06,01,00,48,16.70
2021,06,01,00,49,16.70
2021,06,01,00,50,16.70
2021,06,01,00,51,16.70
2021,06,01,00,52,16.70
2021,06,01,00,53,16.70
2021,06,01,00,54,16.70
2021,06,01,00,55,16.70
2021,06,01,00,56,16.70
2021,06,01,00,57,16.60
2021,06,01,00,58,16.70
2021,06,01,00,59,16.70
2021,06,01,01,00,16.70
2021,06,01,01,01,16.70
2021,06,01,01,02,16.60
2021,06,01,01,03,16.60
2021,06,01,01,04,16.60
2021,06,01,01,05,16.60
2021,06,01,01,06,16.60
2021,06,01,01,07,16.60
2021,06,01,01,08,16.60
2021,06,01,01,09,16.60
2021,06,01,01,10,16.60
2021,06,01,01,11,16.50
2021,06,01,01,12,16.50
2021,06,01,01,13,16.50
2021,06,01,01,14,16.50
2021,06,01,01,15,16.50
2021,06,01,01,16,16.50
2021,06,01,01,17,16.40
2021,06,01,01,18,16.40
2021,06,01,01,19,16.40
2021,06,01,01,20,16.40
2021,06,01,01,21,16.40
2021,06,01,01,22,16.40
2021,06,01,01,23,16.40
2021,06,01,01,24,16.40
2021,06,01,01,25,16.40
2021,06,01,01,26,16.40
2021,06,01,01,27,16.40
2021,06,01,01,28,16.40
2021,06,01,01,29,16.40
2021,06,01,01,30,16.40
2021,06,01,01,31,16.40
2021,06,01,01,32,16.40
2021,06,01,01,33,16.40
2021,06,01,01,34,16.40
2021,06,01,01,35,16.30
2021,06,01,01,36,16.30
2021,06,01,01,37,16.30
2021,06,01,01,38,16.30
2021,06,01,01,39,16.30
2021,06,01,01,40,16.30
2021,06,01,01,41,16.30
2021,06,01,01,42,16.30
2021,06,01,01,43,16.30
2021,06,01,01,44,16.30
2021,06,01,01,45,16.30
2021,06,01,01,46,16.30
2021,06,01,01,47,16.30
2021,06,01,01,48,16.30
2021,06,01,01,49,16.30
2021,06,01,01,50,16.30
2021,06,01,01,51,16.30
2021,06,01,01,52,16.30
2021,06,01,01,53,16.30
2021,06,01,01,54,16.30
2021,06,01,01,55,16.30
2021,06,01,01,56,16.30
2021,06,01,01,57,16.30
2021,06,01,01,58,16.30
2021,06,01,01,59,16.30
2021,06,01,02,00,16.30
2021,06,01,02,01,16.30
2021,06,01,02,02,16.30
2021,06,01,02,03,16.30
2021,06,01,02,04,16.30
2021,06,01,02,05,16.30
2021,06,01,02,06,16.30
2021,06,01,02,07,16.30
2021,06,01,02,08,16.30
2021,06,01,02,09,16.30
2021,06,01,02,10,16.30
2021,06,01,02,11,16.20
2021,06,01,02,12,16.20
2021,06,01,02,13,16.20
2021,06,01,02,14,16.30
2021,06,01,02,15,16.30
2021,06,01,02,16,16.30
2021,06,01,02,17,16.30
2021,06,01,02,18,16.30
2021,06,01,02,19,16.30
2021,06,01,02,20,16.30
2021,06,01,02,21,16.30
2021,06,01,02,22,16.20
2021,06,01,02,23,16.20
2021,06,01,02,24,16.20
2021,06,01,02,25,16.20
2021,06,01,02,26,16.20
2021,06,01,02,27,16.20
2021,06,01,02,28,16.20
2021,06,01,02,29,16.20
2021,06,01,02,30,16.20
2021,06,01,02,31,16.20
2021,06,01,02,32,16.20
2021,06,01,02,33,16.20
2021,06,01,02,34,16.20
2021,06,01,02,35,16.20
2021,06,01,02,36,16.20
2021,06,01,02,37,16.20
2021,06,01,02,38,16.20
2021,06,01,02,39,16.20
2021,06,01,02,40,16.10
2021,06,01,02,41,16.10
2021,06,01,02,42,16.10
2021,06,01,02,43,16.10
2021,06,01,02,44,16.20
2021,06,01,02,45,16.20
2021,06,01,02,46,16.10
2021,06,01,02,47,16.20
2021,06,01,02,48,16.20
2021,06,01,02,49,16.20
2021,06,01,02,50,16.20
2021,06,01,02,51,16.20
2021,06,01,02,52,16.20
2021,06,01,02,53,16.20
2021,06,01,02,54,16.10
2021,06,01,02,55,16.20
2021,06,01,02,56,16.10
2021,06,01,02,57,16.10
2021,06,01,02,58,16.10
2021,06,01,02,59,16.10
2021,06,01,03,00,16.10
2021,06,01,03,01,16.10
2021,06,01,03,02,16.10
2021,06,01,03,03,16.10
2021,06,01,03,04,16.10
2021,06,01,03,05,16.10
2021,06,01,03,06,16.10
2021,06,01,03,07,16.10
2021,06,01,03,08,16.10
2021,06,01,03,09,16.10
2021,06,01,03,10,16.10
2021,06,01,03,11,16.10
2021,06,01,03,12,16.10
2021,06,01,03,13,16.10
2021,06,01,03,14,16.10
2021,06,01,03,15,16.00
2021,06,01,03,16,16.00
2021,06,01,03,17,16.00
2021,06,01,03,18,16.00
2021,06,01,03,19,16.00
2021,06,01,03,20,16.00
2021,06,01,03,21,16.00
2021,06,01,03,22,16.00
2021,06,01,03,23,15.90
2021,06,01,03,24,15.90
2021,06,01,03,25,15.90
2021,06,01,03,26,15.90
2021,06,01,03,27,15.90
2021,06,01,03,28,15.90
2021,06,01,03,29,15.90
2021,06,01,03,30,15.90
2021,06,01,03,31,15.90
2021,06,01,03,32,15.90
2021,06,01,03,33,15.90
2021,06,01,03,34,15.90
2021,06,01,03,35,15.90
2021,06,01,03,36,15.80
2021,06,01,03,37,15.80
2021,06,01,03,38,15.80
2021,06,01,03,39,15.80
2021,06,01,03,40,15.80
2021,06,01,03,41,15.80
2021,06,01,03,42,15.80
2021,06,01,03,43,15.80
2021,06,01,03,44,15.80
2021,06,01,03,45,15.80
2021,06,01,03,46,15.70
2021,06,01,03,47,15.70
2021,06,01,03,48,15.70
2021,06,01,03,49,15.70
2021,06,01,03,50,15.70
2021,06,01,03,51,15.60
2021,06,01,03,52,15.60
2021,06,01,03,53,15.60
2021,06,01,03,54,15.60
2021,06,01,03,55,15.50
2021,06,01,03,56,15.50
2021,06,01,03,57,15.50
2021,06,01,03,58,15.50
2021,06,01,03,59,15.50
2021,06,01,04,00,15.50
2021,06,01,04,01,15.40
2021,06,01,04,02,15.40
2021,06,01,04,03,15.40
2021,06,01,04,04,15.40
2021,06,01,04,05,15.40
2021,06,01,04,06,15.40
2021,06,01,04,07,15.40
2021,06,01,04,08,15.40
2021,06,01,04,09,15.40
2021,06,01,04,10,15.40
2021,06,01,04,11,15.40
2021,06,01,04,12,15.40
2021,06,01,04,13,15.40
2021,06,01,04,14,15.40
2021,06,01,04,15,15.40
2021,06,01,04,16,15.40
2021,06,01,04,17,15.30
2021,06,01,04,18,15.30
2021,06,01,04,19,15.30
2021,06,01,04,20,15.30
2021,06,01,04,21,15.30
2021,06,01,04,22,15.30
2021,06,01,04,23,15.30
2021,06,01,04,24,15.30
2021,06,01,04,25,15.20
2021,06,01,04,26,15.20
2021,06,01,04,27,15.20
2021,06,01,04,28,15.20
2021,06,01,04,29,15.20
2021,06,01,04,30,15.10
2021,06,01,04,31,15.10
2021,06,01,04,32,15.10
2021,06,01,04,33,15.10
2021,06,01,04,34,15.10
2021,06,01,04,35,15.10
2021,06,01,04,36,15.10
2021,06,01,04,37,15.10
2021,06,01,04,38,15.00
2021,06,01,04,39,15.00
2021,06,01,04,40,15.00
2021,06,01,04,41,15.00
2021,06,01,04,42,14.90
2021,06,01,04,43,14.90
2021,06,01,04,44,14.90
2021,06,01,04,45,14.90
2021,06,01,04,46,14.80
2021,06,01,04,47,14.80
2021,06,01,04,48,14.80
2021,06,01,04,49,14.80
2021,06,01,04,50,14.80
2021,06,01,04,51,14.80
2021,06,01,04,52,14.80
2021,06,01,04,53,14.80
2021,06,01,04,54,14.80
2021,06,01,04,55,14.80
2021,06,01,04,56,14.80
2021,06,01,04,57,14.70
2021,06,01,04,58,14.70
2021,06,01,04,59,14.70
2021,06,01,05,00,14.70
2021,06,01,05,01,14.70
2021,06,01,05,02,14.70
2021,06,01,05,03,14.70
2021,06,01,05,04,14.70
2021,06,01,05,05,14.70
2021,06,01,05,06,14.70
2021,06,01,05,07,14.60
2021,06,01,05,08,14.70
2021,06,01,05,09,14.70
2021,06,01,05,10,14.70
2021,06,01,05,11,14.60
2021,06,01,05,12,14.60
2021,06,01,05,13,14.60
2021,06,01,05,14,14.60
2021,06,01,05,15,14.60
2021,06,01,05,16,14.60
2021,06,01,05,17,14.60
2021,06,01,05,18,14.60
2021,06,01,05,19,14.60
2021,06,01,05,20,14.60
2021,06,01,05,21,14.60
2021,06,01,05,22,14.70
2021,06,01,05,23,14.70
2021,06,01,05,24,14.70
2021,06,01,05,25,14.70
2021,06,01,05,26,14.70
2021,06,01,05,27,14.70
2021,06,01,05,28,14.70
2021,06,01,05,29,14.70
2021,06,01,05,30,14.70
2021,06,01,05,31,14.70
2021,06,01,05,32,14.60
2021,06,01,05,33,14.70
2021,06,01,05,34,14.60
2021,06,01,05,35,14.60
2021,06,01,05,36,14.60
2021,06,01,05,37,14.60
2021,06,01,05,38,14.60
2021,06,01,05,39,14.60
2021,06,01,05,40,14.60
2021,06,01,05,41,14.60
2021,06,01,05,42,14.60
2021,06,01,05,43,14.60
2021,06,01,05,44,14.70
2021,06,01,05,45,14.70
2021,06,01,05,46,14.70
2021,06,01,05,47,14.70
2021,06,01,05,48,14.70
2021,06,01,05,49,14.70
2021,06,01,05,50,14.70
2021,06,01,05,51,14.70
2021,06,01,05,52,14.70
2021,06,01,05,53,14.70
2021,06,01,05,54,14.70
2021,06,01,05,55,14.70
2021,06,01,05,56,14.70
2021,06,01,05,57,14.70
2021,06,01,05,58,14.70
2021,06,01,05,59,14.70
2021,06,01,06,00,14.70
2021,06,01,06,01,14.70
2021,06,01,06,02,14.70
2021,06,01,06,03,14.70
2021,06,01,06,04,14.70
2021,06,01,06,05,14.60
2021,06,01,06,06,14.60
2021,06,01,06,07,14.70
2021,06,01,06,08,14.60
2021,06,01,06,09,14.60
2021,06,01,06,10,14.60
2021,06,01,06,11,14.60
2021,06,01,06,12,14.60
2021,06,01,06,13,14.60
2021,06,01,06,14,14.60
2021,06,01,06,15,14.60
2021,06,01,06,16,14.60
2021,06,01,06,17,14.50
2021,06,01,06,18,14.50
2021,06,01,06,19,14.50
2021,06,01,06,20,14.50
2021,06,01,06,21,14.50
2021,06,01,06,22,14.50
2021,06,01,06,23,14.50
2021,06,01,06,24,14.50
2021,06,01,06,25,14.50
2021,06,01,06,26,14.50
2021,06,01,06,27,14.50
2021,06,01,06,28,14.50
2021,06,01,06,29,14.50
2021,06,01,06,30,14.50
2021,06,01,06,31,14.50
2021,06,01,06,32,14.50
2021,06,01,06,33,14.50
2021,06,01,06,34,14.50
2021,06,01,06,35,14.50
2021,06,01,06,36,14.60
2021,06,01,06,37,14.60
2021,06,01,06,38,14.60
2021,06,01,06,39,14.60
2021,06,01,06,40,14.60
2021,06,01,06,41,14.60
2021,06,01,06,42,14.70
2021,06,01,06,43,14.70
2021,06,01,06,44,14.70
2021,06,01,06,45,14.70
2021,06,01,06,46,14.70
2021,06,01,06,47,14.70
2021,06,01,06,48,14.80
2021,06,01,06,49,14.80
2021,06,01,06,50,14.80
2021,06,01,06,51,14.80
2021,06,01,06,52,14.80
2021,06,01,06,53,14.80
2021,06,01,06,54,14.80
2021,06,01,06,55,14.90
2021,06,01,06,56,14.90
2021,06,01,06,57,14.90
2021,06,01,06,58,14.90
2021,06,01,06,59,14.90
2021,06,01,07,00,15.00
2021,06,01,07,01,15.00
2021,06,01,07,02,15.10
2021,06,01,07,03,15.10
2021,06,01,07,04,15.10
2021,06,01,07,05,15.10
2021,06,01,07,06,15.20
2021,06,01,07,07,15.20
2021,06,01,07,08,15.20
2021,06,01,07,09,15.20
2021,06,01,07,10,15.30
2021,06,01,07,11,15.30
2021,06,01,07,12,15.30
2021,06,01,07,13,15.40
2021,06,01,07,14,15.40
2021,06,01,07,15,15.50
2021,06,01,07,16,15.60
2021,06,01,07,17,15.60
2021,06,01,07,18,15.70
2021,06,01,07,19,15.80
2021,06,01,07,20,15.80
2021,06,01,07,21,15.90
2021,06,01,07,22,16.00
2021,06,01,07,23,16.10
2021,06,01,07,24,16.10
2021,06,01,07,25,16.20
2021,06,01,07,26,16.30
2021,06,01,07,27,16.40
2021,06,01,07,28,16.40
2021,06,01,07,29,16.40
2021,06,01,07,30,16.50
2021,06,01,07,31,16.50
2021,06,01,07,32,16.60
2021,06,01,07,33,16.60
2021,06,01,07,34,16.70
2021,06,01,07,35,16.80
2021,06,01,07,36,16.80
2021,06,01,07,37,16.90
2021,06,01,07,38,16.90
2021,06,01,07,39,17.00
2021,06,01,07,40,17.10
2021,06,01,07,41,17.20
2021,06,01,07,42,17.20
2021,06,01,07,43,17.30
2021,06,01,07,44,17.40
2021,06,01,07,45,17.50
2021,06,01,07,46,17.60
2021,06,01,07,47,17.70
2021,06,01,07,48,17.80
2021,06,01,07,49,17.90
2021,06,01,07,50,17.90
2021,06,01,07,51,18.00
2021,06,01,07,52,18.10
2021,06,01,07,53,18.20
2021,06,01,07,54,18.30
2021,06,01,07,55,18.40
2021,06,01,07,56,18.50
2021,06,01,07,57,18.70
2021,06,01,07,58,18.80
2021,06,01,07,59,19.00
2021,06,01,08,00,19.10
2021,06,01,08,01,19.30
2021,06,01,08,02,19.40
2021,06,01,08,03,19.50
2021,06,01,08,04,19.60
2021,06,01,08,05,19.70
2021,06,01,08,06,19.80
2021,06,01,08,07,19.90
2021,06,01,08,08,20.00
2021,06,01,08,09,20.10
2021,06,01,08,10,20.20
2021,06,01,08,11,20.30
2021,06,01,08,12,20.40
2021,06,01,08,13,20.50
2021,06,01,08,14,20.60
2021,06,01,08,15,20.70
2021,06,01,08,16,20.70
2021,06,01,08,17,20.80
2021,06,01,08,18,20.90
2021,06,01,08,19,21.00
2021,06,01,08,20,21.10
2021,06,01,08,21,21.10
2021,06,01,08,22,21.20
2021,06,01,08,23,21.20
2021,06,01,08,24,21.20
2021,06,01,08,25,21.30
2021,06,01,08,26,21.30
2021,06,01,08,27,21.40
2021,06,01,08,28,21.50
2021,06,01,08,29,21.60
2021,06,01,08,30,21.70
2021,06,01,08,31,21.70
2021,06,01,08,32,21.70
2021,06,01,08,33,21.70
2021,06,01,08,34,21.60
2021,06,01,08,35,21.50
2021,06,01,08,36,21.40
2021,06,01,08,37,21.40
2021,06,01,08,38,21.40
2021,06,01,08,39,21.30
2021,06,01,08,40,21.30
2021,06,01,08,41,21.30
2021,06,01,08,42,21.20
2021,06,01,08,43,21.20
2021,06,01,08,44,21.20
2021,06,01,08,45,21.20
2021,06,01,08,46,21.20
2021,06,01,08,47,21.20
2021,06,01,08,48,21.20
2021,06,01,08,49,21.20
2021,06,01,08,50,21.20
2021,06,01,08,51,21.20
2021,06,01,08,52,21.20
2021,06,01,08,53,21.20
2021,06,01,08,54,21.20
2021,06,01,08,55,21.10
2021,06,01,08,56,21.10
2021,06,01,08,57,21.10
2021,06,01,08,58,21.10
2021,06,01,08,59,21.10
2021,06,01,09,00,21.20
2021,06,01,09,01,21.10
2021,06,01,09,02,21.10
2021,06,01,09,03,21.10
2021,06,01,09,04,21.10
2021,06,01,09,05,21.10
2021,06,01,09,06,21.20
2021,06,01,09,07,21.20
2021,06,01,09,08,21.30
2021,06,01,09,09,21.30
2021,06,01,09,10,21.40
2021,06,01,09,11,21.40
2021,06,01,09,12,21.40
2021,06,01,09,13,21.50
2021,06,01,09,14,21.50
2021,06,01,09,15,21.60
2021,06,01,09,16,21.70
2021,06,01,09,17,21.80
2021,06,01,09,18,21.90
2021,06,01,09,19,21.90
2021,06,01,09,20,21.90
2021,06,01,09,21,21.90
2021,06,01,09,22,22.00
2021,06,01,09,23,22.00
2021,06,01,09,24,22.10
2021,06,01,09,25,22.10
2021,06,01,09,26,22.10
2021,06,01,09,27,22.20
2021,06,01,09,28,22.20
2021,06,01,09,29,22.20
2021,06,01,09,30,22.20
2021,06,01,09,31,22.10
2021,06,01,09,32,22.10
2021,06,01,09,33,22.10
2021,06,01,09,34,22.10
2021,06,01,09,35,22.10
2021,06,01,09,36,22.10
2021,06,01,09,37,22.20
2021,06,01,09,38,22.30
2021,06,01,09,39,22.30
2021,06,01,09,40,22.30
2021,06,01,09,41,22.20
2021,06,01,09,42,22.20
2021,06,01,09,43,22.20
2021,06,01,09,44,22.20
2021,06,01,09,45,22.30
2021,06,01,09,46,22.30
2021,06,01,09,47,22.40
2021,06,01,09,48,22.50
2021,06,01,09,49,22.60
2021,06,01,09,50,22.60
2021,06,01,09,51,22.60
2021,06,01,09,52,22.60
2021,06,01,09,53,22.60
2021,06,01,09,54,22.60
2021,06,01,09,55,22.60
2021,06,01,09,56,22.60
2021,06,01,09,57,22.60
2021,06,01,09,58,22.60
2021,06,01,09,59,22.60
2021,06,01,10,00,22.60
2021,06,01,10,01,22.70
2021,06,01,10,02,22.70
2021,06,01,10,03,22.80
2021,06,01,10,04,22.80
2021,06,01,10,05,22.80
2021,06,01,10,06,22.80
2021,06,01,10,07,22.80
2021,06,01,10,08,22.80
2021,06,01,10,09,22.80
2021,06,01,10,10,22.80
2021,06,01,10,11,22.80
2021,06,01,10,12,22.80
2021,06,01,10,29,22.30
2021,06,01,10,30,22.20
2021,06,01,10,31,22.20
2021,06,01,10,32,22.20
2021,06,01,10,33,22.20
2021,06,01,10,34,22.10
2021,06,01,10,35,22.10
2021,06,01,10,36,22.10
2021,06,01,10,37,22.10
2021,06,01,10,38,22.20
2021,06,01,10,39,22.20
2021,06,01,10,40,22.30
2021,06,01,10,41,22.30
2021,06,01,10,42,22.40
2021,06,01,10,43,22.50
2021,06,01,10,44,22.60
2021,06,01,10,45,22.70
2021,06,01,10,46,22.70
2021,06,01,10,47,22.70
2021,06,01,10,48,22.70
2021,06,01,10,49,22.70
2021,06,01,10,50,22.80
2021,06,01,10,51,22.80
2021,06,01,10,52,22.90
2021,06,01,10,53,22.90
2021,06,01,10,54,23.00
2021,06,01,10,55,23.10
2021,06,01,10,56,23.00
2021,06,01,10,57,22.90
2021,06,01,10,58,22.80
2021,06,01,10,59,22.90
2021,06,01,11,00,22.90
2021,06,01,11,01,22.90
2021,06,01,11,02,22.90
2021,06,01,11,03,23.00
2021,06,01,11,04,23.00
2021,06,01,11,05,23.10
2021,06,01,11,06,23.00
2021,06,01,11,07,22.90
2021,06,01,11,08,22.80
2021,06,01,11,09,22.80
2021,06,01,11,10,22.90
2021,06,01,11,11,22.90
2021,06,01,11,12,22.90
2021,06,01,11,13,22.90
2021,06,01,11,14,22.90
2021,06,01,11,15,22.90
2021,06,01,11,16,22.90
2021,06,01,11,17,23.00
2021,06,01,11,18,23.10
2021,06,01,11,19,23.20
2021,06,01,11,20,23.20
2021,06,01,11,21,23.20
2021,06,01,11,22,23.20
2021,06,01,11,23,23.30
2021,06,01,11,24,23.40
2021,06,01,11,25,23.50
2021,06,01,11,26,23.60
2021,06,01,11,27,23.70
2021,06,01,11,28,23.70
2021,06,01,11,29,23.60
2021,06,01,11,30,23.60
2021,06,01,11,31,23.60
2021,06,01,11,32,23.60
2021,06,01,11,33,23.60
2021,06,01,11,34,23.60
2021,06,01,11,35,23.60
2021,06,01,11,36,23.70
2021,06,01,11,37,23.80
2021,06,01,11,38,23.80
2021,06,01,11,39,23.90
2021,06,01,11,40,23.90
2021,06,01,11,41,23.90
2021,06,01,11,42,24.00
2021,06,01,11,43,23.90
2021,06,01,11,44,23.90
2021,06,01,11,45,23.90
2021,06,01,11,46,23.90
2021,06,01,11,47,23.90
2021,06,01,11,48,23.80
2021,06,01,11,49,23.90
2021,06,01,11,50,23.90
2021,06,01,11,51,24.00
2021,06,01,11,52,23.90
2021,06,01,11,53,23.80
2021,06,01,11,54,23.80
2021,06,01,11,55,23.90
2021,06,01,11,56,24.00
2021,06,01,11,57,24.10
2021,06,01,11,58,24.10
2021,06,01,11,59,24.10
2021,06,01,12,00,24.20
2021,06,01,12,01,24.20
2021,06,01,12,02,24.30
2021,06,01,12,03,24.30
2021,06,01,12,04,24.30
2021,06,01,12,05,24.40
2021,06,01,12,06,24.30
2021,06,01,12,07,24.30
2021,06,01,12,08,24.30
2021,06,01,12,09,24.20
2021,06,01,12,10,24.20
2021,06,01,12,11,24.10
2021,06,01,12,12,24.00
2021,06,01,12,13,24.00
2021,06,01,12,14,24.00
2021,06,01,12,15,24.00
2021,06,01,12,16,24.10
2021,06,01,12,17,24.10
2021,06,01,12,18,24.20
2021,06,01,12,19,24.30
2021,06,01,12,20,24.40
2021,06,01,12,21,24.50
2021,06,01,12,22,24.60
2021,06,01,12,23,24.70
2021,06,01,12,24,24.80
2021,06,01,12,25,24.90
2021,06,01,12,26,24.80
2021,06,01,12,27,24.70
2021,06,01,12,28,24.60
2021,06,01,12,29,24.50
2021,06,01,12,30,24.30
2021,06,01,12,31,24.20
2021,06,01,12,32,24.10
2021,06,01,12,33,24.10
2021,06,01,12,34,24.00
2021,06,01,12,35,23.90
2021,06,01,12,36,23.90
2021,06,01,12,37,23.90
2021,06,01,12,38,23.80
2021,06,01,12,39,23.80
2021,06,01,12,40,23.80
2021,06,01,12,41,23.80
2021,06,01,12,42,23.80
2021,06,01,12,43,23.90
2021,06,01,12,44,23.90
2021,06,01,12,45,24.00
2021,06,01,12,46,24.00
2021,06,01,12,47,24.10
2021,06,01,12,48,24.20
2021,06,01,12,49,24.20
2021,06,01,12,50,24.30
2021,06,01,12,51,24.30
2021,06,01,12,52,24.40
2021,06,01,12,53,24.40
2021,06,01,12,54,24.40
2021,06,01,12,55,24.40
2021,06,01,12,56,24.40
2021,06,01,12,57,24.50
2021,06,01,12,58,24.50
2021,06,01,12,59,24.50
2021,06,01,13,00,24.60
2021,06,01,13,01,24.70
2021,06,01,13,02,24.80
2021,06,01,13,03,24.90
2021,06,01,13,04,24.90
2021,06,01,13,05,25.00
2021,06,01,13,06,25.00
2021,06,01,13,07,25.10
2021,06,01,13,08,25.10
2021,06,01,13,09,25.20
2021,06,01,13,10,25.30
2021,06,01,13,11,25.30
2021,06,01,13,12,25.30
2021,06,01,13,13,25.40
2021,06,01,13,14,25.40
2021,06,01,13,15,25.50
2021,06,01,13,16,25.60
2021,06,01,13,17,25.60
2021,06,01,13,18,25.50
2021,06,01,13,19,25.40
2021,06,01,13,20,25.40
2021,06,01,13,21,25.40
2021,06,01,13,22,25.40
2021,06,01,13,23,25.60
2021,06,01,13,24,25.60
2021,06,01,13,25,25.70
2021,06,01,13,26,25.70
2021,06,01,13,27,25.70
2021,06,01,13,28,25.70
2021,06,01,13,29,25.70
2021,06,01,13,30,25.60
2021,06,01,13,31,25.60
2021,06,01,13,32,25.70
2021,06,01,13,33,25.70
2021,06,01,13,34,25.80
2021,06,01,13,35,25.80
2021,06,01,13,36,25.80
2021,06,01,13,37,25.80
2021,06,01,13,38,25.80
2021,06,01,13,39,25.90
2021,06,01,13,40,26.00
2021,06,01,13,41,26.10
2021,06,01,13,42,26.00
2021,06,01,13,43,25.90
2021,06,01,13,44,25.80
2021,06,01,13,45,25.80
2021,06,01,13,46,25.80
2021,06,01,13,47,25.80
2021,06,01,13,48,25.90
2021,06,01,13,49,25.90
2021,06,01,13,50,25.80
2021,06,01,13,51,25.80
2021,06,01,13,52,25.90
2021,06,01,13,53,25.90
2021,06,01,13,54,25.90
2021,06,01,13,55,25.80
2021,06,01,13,56,25.70
2021,06,01,13,57,25.60
2021,06,01,13,58,25.60
2021,06,01,13,59,25.60
2021,06,01,14,00,25.60
2021,06,01,14,01,25.60
2021,06,01,14,02,25.60
2021,06,01,14,03,25.60
2021,06,01,14,04,25.70
2021,06,01,14,05,25.60
2021,06,01,14,06,25.40
2021,06,01,14,07,25.40
2021,06,01,14,08,25.30
2021,06,01,14,09,25.30
2021,06,01,14,10,25.30
2021,06,01,14,11,25.20
2021,06,01,14,12,25.20
2021,06,01,14,13,25.10
2021,06,01,14,14,25.00
2021,06,01,14,15,25.00
2021,06,01,14,16,25.00
2021,06,01,14,17,25.00
2021,06,01,14,18,25.00
2021,06,01,14,19,25.10
2021,06,01,14,20,25.10
2021,06,01,14,21,25.20
2021,06,01,14,22,25.30
2021,06,01,14,23,25.40
2021,06,01,14,24,25.50
2021,06,01,14,25,25.60
2021,06,01,14,26,25.70
2021,06,01,14,27,25.80
2021,06,01,14,28,25.90
2021,06,01,14,29,25.90
2021,06,01,14,30,25.90
2021,06,01,14,31,25.90
2021,06,01,14,32,25.90
2021,06,01,14,33,25.90
2021,06,01,14,34,25.90
2021,06,01,14,35,25.90
2021,06,01,14,36,26.00
2021,06,01,14,37,26.00
2021,06,01,14,38,26.10
2021,06,01,14,39,26.20
2021,06,01,14,40,26.20
2021,06,01,14,41,26.30
2021,06,01,14,42,26.30
2021,06,01,14,43,26.40
2021,06,01,14,44,26.40
2021,06,01,14,45,26.50
2021,06,01,14,46,26.40
2021,06,01,14,47,26.40
2021,06,01,14,48,26.40
2021,06,01,14,49,26.40
2021,06,01,14,50,26.40
2021,06,01,14,51,26.30
2021,06,01,14,52,26.30
2021,06,01,14,53,26.30
2021,06,01,14,54,26.30
2021,06,01,14,55,26.30
2021,06,01,14,56,26.30
2021,06,01,14,57,26.30
2021,06,01,14,58,26.20
2021,06,01,14,59,26.20
2021,06,01,15,00,26.20
2021,06,01,15,01,26.30
2021,06,01,15,02,26.50
2021,06,01,15,03,26.60
2021,06,01,15,04,26.70
2021,06,01,15,05,26.70
2021,06,01,15,06,26.80
2021,06,01,15,07,26.80
2021,06,01,15,08,26.80
2021,06,01,15,09,26.90
2021,06,01,15,10,27.00
2021,06,01,15,11,27.00
2021,06,01,15,12,27.10
2021,06,01,15,13,27.10
2021,06,01,15,14,27.10
2021,06,01,15,15,27.10
2021,06,01,15,16,27.00
2021,06,01,15,17,26.90
2021,06,01,15,18,27.00
2021,06,01,15,19,27.10
2021,06,01,15,20,27.20
2021,06,01,15,21,27.20
2021,06,01,15,22,27.20
2021,06,01,15,23,27.30
2021,06,01,15,24,27.40
2021,06,01,15,25,27.50
2021,06,01,15,26,27.60
2021,06,01,15,27,27.60
2021,06,01,15,28,27.60
2021,06,01,15,29,27.60
2021,06,01,15,30,27.60
2021,06,01,15,31,27.60
2021,06,01,15,32,27.60
2021,06,01,15,33,27.70
2021,06,01,15,34,27.70
2021,06,01,15,35,27.70
2021,06,01,15,36,27.70
2021,06,01,15,37,27.70
2021,06,01,15,38,27.80
2021,06,01,15,39,27.70
2021,06,01,15,40,27.70
2021,06,01,15,41,27.80
2021,06,01,15,42,27.90
2021,06,01,15,43,27.90
2021,06,01,15,44,28.00
2021,06,01,15,45,28.10
2021,06,01,15,46,28.20
2021,06,01,15,47,28.30
2021,06,01,15,48,28.40
2021,06,01,15,49,28.40
2021,06,01,15,50,28.20
2021,06,01,15,51,28.00
2021,06,01,15,52,27.90
2021,06,01,15,53,27.90
2021,06,01,15,54,27.80
2021,06,01,15,55,27.80
2021,06,01,15,56,27.80
2021,06,01,15,57,27.80
2021,06,01,15,58,27.80
2021,06,01,15,59,27.70
2021,06,01,16,00,27.60
2021,06,01,16,01,27.60
2021,06,01,16,02,27.60
2021,06,01,16,03,27.60
2021,06,01,16,04,27.60
2021,06,01,16,05,27.70
2021,06,01,16,06,27.80
2021,06,01,16,07,27.90
2021,06,01,16,08,28.00
2021,06,01,16,09,28.00
2021,06,01,16,10,28.00
2021,06,01,16,11,27.90
2021,06,01,16,12,27.80
2021,06,01,16,13,27.80
2021,06,01,16,14,27.90
2021,06,01,16,15,28.00
2021,06,01,16,16,28.10
2021,06,01,16,17,28.20
2021,06,01,16,18,28.30
2021,06,01,16,19,28.30
2021,06,01,16,20,28.40
2021,06,01,16,21,28.40
2021,06,01,16,22,28.40
2021,06,01,16,23,28.40
2021,06,01,16,24,28.40
2021,06,01,16,25,28.40
2021,06,01,16,26,28.50
2021,06,01,16,27,28.50
2021,06,01,16,28,28.40
2021,06,01,16,29,28.40
2021,06,01,16,30,28.20
2021,06,01,16,31,28.10
2021,06,01,16,32,28.00
2021,06,01,16,33,28.00
2021,06,01,16,34,27.90
2021,06,01,16,35,28.00
2021,06,01,16,36,28.00
2021,06,01,16,37,28.00
2021,06,01,16,38,28.00
2021,06,01,16,39,28.00
2021,06,01,16,40,28.00
2021,06,01,16,41,28.00
2021,06,01,16,42,28.00
2021,06,01,16,43,27.90
2021,06,01,16,44,27.90
2021,06,01,16,45,27.90
2021,06,01,16,46,27.90
2021,06,01,16,47,28.00
2021,06,01,16,48,28.00
2021,06,01,16,49,28.00
2021,06,01,16,50,28.00
2021,06,01,16,51,28.10
2021,06,01,16,52,28.10
2021,06,01,16,53,28.20
2021,06,01,16,54,28.30
2021,06,01,16,55,28.30
2021,06,01,16,56,28.30
2021,06,01,16,57,28.40
2021,06,01,16,58,28.40
2021,06,01,16,59,28.40
2021,06,01,17,00,28.40
2021,06,01,17,01,28.40
2021,06,01,17,02,28.40
2021,06,01,17,03,28.50
2021,06,01,17,04,28.50
2021,06,01,17,05,28.60
2021,06,01,17,06,28.70
2021,06,01,17,07,28.80
2021,06,01,17,08,28.80
2021,06,01,17,09,28.90
2021,06,01,17,10,29.00
2021,06,01,17,11,29.10
2021,06,01,17,12,29.10
2021,06,01,17,13,29.10
2021,06,01,17,14,29.10
2021,06,01,17,15,29.20
2021,06,01,17,16,29.10
2021,06,01,17,17,29.10
2021,06,01,17,18,29.00
2021,06,01,17,19,29.00
2021,06,01,17,20,28.90
2021,06,01,17,21,29.00
2021,06,01,17,22,29.00
2021,06,01,17,23,29.10
2021,06,01,17,24,29.10
2021,06,01,17,25,29.10
2021,06,01,17,26,29.10
2021,06,01,17,27,29.10
2021,06,01,17,28,29.10
2021,06,01,17,29,29.10
2021,06,01,17,30,29.10
2021,06,01,17,31,29.10
2021,06,01,17,32,29.00
2021,06,01,17,33,29.00
2021,06,01,17,34,29.00
2021,06,01,17,35,29.00